Location: Newark
(52.8300°N, 8.0000°E)
Time: 06:32:57
(UTC+00:00)

STARLINK-1082 - Pass Details

Date: 01 February 2020
Orbit: 348 x 351 km, 53.0° (Epoch: 23 February)

Event Time Altitude Azimuth Distance (km) Brightness Sun altitude
Rises 17:23:31 0° 282° (WNW) 2,178 7.9 -10.9°
Reaches altitude 10° 17:25:49 10° 266° (W) 1,331 7.1 -11.2°
Maximum altitude 17:28:09 21° 214° (SW) 862 5.2 -11.6°
Drops below altitude 10° 17:30:29 10° 162° (SSE) 1,325 5.5 -11.9°
Enters shadow 17:32:44 - 146° (SE) 2,154 6.4 -12.2°
